[[{"header":{"parameterUnit":"m.s-1","parameterCategory":2,"la1":30.2991,"la2":30.254,"lo1":-89.0895,"lo2":-89.0444,"dy":0.0017,"dx":0.0017,"nx":28,"ny":28,"refTime":"2024-08-02T21:00:00:Z","depth":"0","parameterNumber":2,"parameterNumberName":"U-component_of_CURRENTS"},"data":[0,0,0,0,0,0,0,0,0,0,0,0,0,0,0,0,0,0,0,0,0,0,0,0,0,0,0,0,0,0,0,0,0,0,0,0,0,0,0,0,0,0,0,0,0,0,0,0,0,0,0,0,0,0,0,0,0,0,0.3742,0.3743,0,0.3804,0.3804,0.3805,0.3807,0.3807,0.3806,0.3806,0.3816,0.3817,0.3817,0,0,0,0,0,0,0,0,0,0,0,0,0,0.3574,0.3576,0.3742,0.3743,0.3744,0.3804,0.3804,0.3805,0.3807,0.3807,0.3806,0.3806,0.3816,0.3817,0.3817,0,0,0,0,0,0,0,0,0,0,0,0,0,0.3637,0.3577,0.3742,0.3757,0.376,0.3804,0.3804,0.3805,0.3807,0.3807,0.3806,0.3806,0.3816,0.3816,0.3817,0.3827,0,0,0.3819,0.3819,0,0,0,0,0,0,0,0,0.3633,0.3642,0.3754,0.3756,0.3759,0.3803,0.3749,0.3812,0.3807,0.3783,0.3806,0.3806,0.3811,0.3812,0.3817,0.3828,0.3828,0.3819,0.382,0.382,0.382,0,0,0,0,0,0,0,0.3629,0.3639,0.376,0.3755,0.3759,0.3744,0.3752,0.3761,0.3792,0.3785,0.3787,0.3803,0.3811,0.3816,0.3817,0.3828,0.3819,0.382,0.382,0.3821,0.3885,0.3886,0,0,0,0,0,0,0.3637,0.3636,0.3759,0.3763,0.3701,0.3748,0.3757,0.3784,0.3793,0.3797,0.3803,0.3803,0.3815,0.3816,0.3817,0.3875,0.382,0.3821,0.3821,0.3883,0.3885,0.3886,0,0,0,0,0,0,0.3633,0.3648,0.3756,0.3704,0.3718,0.3752,0.3782,0.3786,0.3798,0.3809,0.381,0.3813,0.3815,0.3816,0.3844,0.3873,0.3821,0.3822,0.3882,0.3884,0.3886,0.3961,0,0,0,0,0,0,0.3628,0.3646,0.3662,0.3706,0.3722,0.3791,0.3783,0.3787,0.3811,0.3811,0.3818,0.3818,0.3815,0.3843,0.3845,0.3873,0.3822,0.388,0.3883,0.3885,0.3957,0.3965,0.3972,0,0,0,0,0,0.3622,0.365,0.3663,0.3678,0.3745,0.3793,0.3799,0.3816,0.3812,0.3823,0.3835,0.3818,0.3859,0.3845,0.3847,0.3876,0.3879,0.3882,0.3885,0.3953,0.3963,0.3972,0,0,0,0,0,0,0.3577,0.3654,0.367,0.3717,0.3756,0.3795,0.3809,0.3822,0.384,0.3835,0.3838,0.384,0.3877,0.3864,0.3849,0.3901,0.3865,0.3868,0.3916,0.3926,0.3933,0.3961,0.3823,0,0,0,0,0,0.358,0.3625,0.3684,0.372,0.3741,0.3775,0.3794,0.3808,0.3835,0.3842,0.3852,0.3862,0.389,0.3898,0.3911,0.3938,0.401,0.3956,0.3964,0.397,0.3994,0.4159,0.4186,0.3896,0.3896,0.3896,0,0,0.3569,0.3621,0.3643,0.3715,0.3742,0.3782,0.3784,0.3817,0.385,0.384,0.3877,0.3891,0.3904,0.3942,0.3956,0.3935,0.4089,0.3974,0.398,0.4,0.4165,0.4194,0.422,0.3898,0.3897,0.3897,0,0,0.3571,0.362,0.3653,0.3695,0.3751,0.3782,0.3796,0.3841,0.3859,0.39,0.3909,0.3955,0.3968,0.4007,0.4022,0.4081,0.4129,0.4065,0.4126,0.4287,0.4313,0.4337,0.4469,0.4505,0.4066,0.4066,0.4066,0,0.3552,0.3619,0.3665,0.3708,0.3751,0.3787,0.3827,0.3855,0.3902,0.3936,0.3916,0.4004,0.4011,0.4096,0.4116,0.4104,0.4195,0.409,0.4303,0.4328,0.4352,0.4481,0.4519,0.407,0.4069,0.4069,0.4068,0,0.3586,0.3636,0.366,0.3738,0.378,0.3826,0.388,0.3916,0.3942,0.3983,0.4065,0.4093,0.4155,0.4158,0.4155,0.431,0.4321,0.4302,0.4288,0.4387,0.4514,0.4553,0.4075,0.4074,0.4073,0.4072,0,0,0.357,0.3665,0.3675,0.3726,0.3808,0.3856,0.3908,0.3994,0.4057,0.4094,0.4195,0.4242,0.4272,0.4294,0.4305,0.4429,0.4668,0.4438,0.4444,0.4584,0.503,0.4946,0.498,0.4701,0.4708,0.4714,0.5055,0,0.3589,0.3678,0.3715,0.3805,0.387,0.392,0.3978,0.4052,0.4115,0.4217,0.4274,0.4364,0.4318,0.4367,0.4487,0.4631,0.4773,0.4577,0.4899,0.4909,0.4837,0.5023,0.4806,0.5084,0.5093,0.5099,0.5104,0,0.3631,0.3695,0.3779,0.3887,0.3914,0.396,0.4093,0.4145,0.4275,0.4325,0.4421,0.4475,0.4644,0.4595,0.491,0.4794,0.4927,0.5027,0.5043,0.4969,0.4898,0.4985,0.5154,0.4962,0.5163,0.5158,0.5154,0,0.3666,0.3752,0.3829,0.3868,0.3977,0.4018,0.4072,0.4185,0.4262,0.4414,0.4511,0.4669,0.4801,0.4983,0.5154,0.5076,0.5517,0.5434,0.5484,0.5479,0.5358,0.5329,0.5391,0.5697,0.5697,0.5696,0.5695,0,0.3727,0.38,0.3849,0.3909,0.4007,0.4053,0.4166,0.4237,0.4363,0.4486,0.4577,0.4719,0.492,0.5152,0.5269,0.5513,0.5624,0.5558,0.559,0.5371,0.5341,0.5213,0.5114,0.5708,0.5706,0.5703,0.5701,0,0.3808,0.3831,0.3933,0.4012,0.4038,0.4115,0.4219,0.4288,0.441,0.4583,0.4645,0.4861,0.5131,0.5318,0.5653,0.5682,0.5742,0.595,0.5658,0.5647,0.5424,0.5336,0.5343,0.5202,0.6062,0.6062,0.6063,0,0.3883,0.3934,0.4008,0.4032,0.4073,0.4164,0.4208,0.4313,0.4385,0.4657,0.4742,0.5044,0.5209,0.564,0.5761,0.5984,0.5791,0.5908,0.5697,0.5439,0.5368,0.5155,0.5018,0.5583,0.5579,0.5576,0.5574,0,0.4002,0.3999,0.4044,0.4099,0.4137,0.42,0.427,0.4337,0.4467,0.4617,0.4823,0.4983,0.5347,0.5458,0.5731,0.5823,0.5578,0.585,0.569,0.5104,0.4777,0.4643,0.5311,0.5547,0.555,0.5552,0.5553,0.5554,0.4045,0.4077,0.4073,0.4129,0.4167,0.4184,0.4194,0.4271,0.438,0.4541,0.4772,0.4951,0.5175,0.5485,0.5533,0.5427,0.542,0.5284,0.5243,0.5084,0.4794,0.5383,0.5564,0.5567,0.5569,0.5571,0.5573,0,0.4033,0.4036,0.4091,0.4096,0.4097,0.4139,0.4178,0.4144,0.42,0.444,0.4594,0.4776,0.4891,0.5016,0.5028,0.4861,0.465,0.4722,0.4361,0.4292,0.4936,0.4751,0.4631,0.4631,0.4631,0.4631,0.4631,0.4632,0.3999,0.3992,0.4012,0.3991,0.3996,0.3928,0.3911,0.3901,0.4009,0.4091,0.4185,0.4331,0.4527,0.4641,0.4484,0.4377,0.4014,0.3858,0.3859,0.4269,0.4315,0.4358,0.416,0.3918,0.3917,0.3032,0.3025,0.302]},{"header":{"parameterUnit":"m.s-1","parameterCategory":2,"la1":30.2991,"la2":30.254,"lo1":-89.0895,"lo2":-89.0444,"dy":0.0017,"dx":0.0017,"nx":28,"ny":28,"refTime":"2024-08-02T21:00:00:Z","depth":"0","parameterNumber":3,"parameterNumberName":"V-component_of_CURRENTS"},"data":[0,0,0,0,0,0,0,0,0,0,0,0,0,0,0,0,0,0,0,0,0,0,0,0,0,0,0,0,0,0,0,0,0,0,0,0,0,0,0,0,0,0,0,0,0,0,0,0,0,0,0,0,0,0,0,0,0,0,-0.0044,-0.0045,0,-0.0105,-0.0106,-0.0107,-0.0167,-0.0168,-0.0168,-0.0168,-0.0285,-0.0288,-0.0291,0,0,0,0,0,0,0,0,0,0,0,0,0,-0.0061,-0.0061,-0.0044,-0.0045,-0.0045,-0.0105,-0.0106,-0.0108,-0.0167,-0.0168,-0.0168,-0.0168,-0.0284,-0.0287,-0.0291,0,0,0,0,0,0,0,0,0,0,0,0,0,-0.0085,-0.006,-0.0044,-0.0078,-0.0082,-0.0105,-0.0106,-0.0108,-0.0167,-0.0168,-0.0168,-0.0169,-0.0283,-0.0287,-0.0291,-0.0307,0,0,-0.0304,-0.0306,0,0,0,0,0,0,0,0,-0.0084,-0.0085,-0.0073,-0.0076,-0.008,-0.0125,-0.0155,-0.0176,-0.0167,-0.014,-0.0168,-0.0169,-0.0233,-0.0242,-0.0258,-0.0312,-0.0317,-0.0304,-0.0307,-0.0309,-0.031,0,0,0,0,0,0,0,-0.0082,-0.0084,-0.0073,-0.0073,-0.0077,-0.0118,-0.0122,-0.016,-0.0188,-0.0142,-0.0145,-0.0144,-0.0236,-0.0254,-0.0261,-0.0319,-0.0304,-0.0308,-0.0311,-0.0312,-0.0379,-0.0378,0,0,0,0,0,0,-0.006,-0.0081,-0.0071,-0.0075,-0.0078,-0.0117,-0.0122,-0.0114,-0.0186,-0.0196,-0.0144,-0.0147,-0.0246,-0.0256,-0.0265,-0.0242,-0.0309,-0.0313,-0.0315,-0.038,-0.0379,-0.0378,0,0,0,0,0,0,-0.006,-0.0058,-0.0069,-0.0076,-0.008,-0.0115,-0.0107,-0.0115,-0.0128,-0.0186,-0.0198,-0.0147,-0.0247,-0.026,-0.0283,-0.0249,-0.0315,-0.0318,-0.0381,-0.0379,-0.0378,-0.0225,0,0,0,0,0,0,-0.006,-0.0058,-0.0047,-0.0074,-0.0078,-0.0065,-0.0106,-0.0115,-0.0124,-0.0129,-0.0193,-0.0205,-0.0248,-0.0276,-0.0287,-0.0256,-0.0322,-0.0382,-0.038,-0.0379,-0.0231,-0.0219,-0.0208,0,0,0,0,0,-0.006,-0.0027,-0.0046,-0.0045,-0.0061,-0.0064,-0.007,-0.0101,-0.0123,-0.0118,-0.016,-0.0202,-0.0275,-0.0278,-0.0291,-0.0261,-0.0382,-0.0381,-0.0379,-0.0236,-0.0221,-0.0209,0,0,0,0,0,0,-0.0019,-0.0031,-0.0052,-0.0022,-0.0038,-0.0072,-0.0065,-0.0092,-0.0122,-0.0128,-0.0191,-0.0205,-0.0214,-0.0264,-0.0265,-0.028,-0.0337,-0.0338,-0.0224,-0.0211,-0.0199,-0.0124,-0.0325,0,0,0,0,0,-0.0006,0.001,-0.0013,0.0011,0.0006,-0.0032,-0.0039,-0.0059,-0.0087,-0.0101,-0.0145,-0.0192,-0.0219,-0.0234,-0.0274,-0.0278,-0.027,-0.0271,-0.026,-0.0249,-0.0199,-0.0149,-0.0126,-0.0373,-0.0373,-0.0373,0,0,0.0019,0.0014,0.0023,0.0019,0.0002,0.0017,-0.0038,-0.0034,-0.0019,-0.0109,-0.0105,-0.0156,-0.0214,-0.0215,-0.0224,-0.0249,-0.0181,-0.0247,-0.0237,-0.0192,-0.0144,-0.012,-0.0098,-0.0371,-0.0372,-0.0372,0,0,0.0082,0.007,0.0101,0.0093,0.008,0.006,0.0066,0.0035,0.0023,0.0016,-0.0038,-0.0046,-0.0117,-0.0122,-0.014,-0.0089,-0.0125,-0.0133,-0.0006,0.0042,0.0064,0.0084,0.0117,0.0139,-0.0122,-0.0122,-0.0122,0,0.0113,0.0153,0.0111,0.0136,0.0155,0.0088,0.0135,0.0109,0.0075,0.0095,0.0037,0.0008,-0.0053,-0.0006,0.0002,-0.0054,-0.0046,-0.0048,0.0064,0.0084,0.0102,0.013,0.0152,-0.0115,-0.0115,-0.0116,-0.0117,0,0.0198,0.0225,0.0248,0.026,0.0265,0.0298,0.0266,0.0268,0.0239,0.0224,0.0251,0.0183,0.0185,0.0144,0.0085,0.0176,0.0134,0.0074,0.0045,0.0137,0.0159,0.0179,-0.0104,-0.0106,-0.0109,-0.0111,0,0,0.0296,0.0309,0.0317,0.0358,0.0344,0.0372,0.0396,0.0431,0.0489,0.0431,0.0523,0.0457,0.0431,0.041,0.034,0.0369,0.0476,0.0282,0.028,0.0344,0.058,0.0478,0.0489,0.0433,0.0437,0.0441,0.0543,0,0.0387,0.0475,0.045,0.0547,0.0603,0.0562,0.0606,0.0618,0.0614,0.0673,0.0627,0.0664,0.0526,0.0546,0.0554,0.0509,0.0538,0.0454,0.0457,0.0458,0.0381,0.0513,0.042,0.0496,0.0562,0.0565,0.0568,0,0.0498,0.0544,0.0659,0.0731,0.0753,0.0796,0.0893,0.0918,0.0954,0.0956,0.0982,0.0932,0.0978,0.0835,0.0847,0.0798,0.0715,0.0659,0.066,0.0538,0.0395,0.0413,0.053,0.0239,0.0599,0.0596,0.0594,0,0.064,0.0705,0.0816,0.0837,0.0891,0.0953,0.0984,0.1025,0.1088,0.1158,0.1233,0.1229,0.1278,0.1192,0.1037,0.0967,0.1037,0.0924,0.0758,0.0748,0.0661,0.0636,0.053,0.095,0.0949,0.0949,0.0949,0,0.0782,0.0874,0.0895,0.0965,0.1105,0.1094,0.1244,0.1268,0.1347,0.1475,0.1403,0.1528,0.1373,0.1356,0.1174,0.1049,0.1149,0.084,0.0794,0.0704,0.0683,0.0413,0.0276,0.0953,0.0952,0.0951,0.0951,0,0.094,0.0954,0.1081,0.115,0.1183,0.1286,0.1387,0.148,0.1549,0.1726,0.177,0.1808,0.1809,0.1608,0.15,0.1257,0.0957,0.1027,0.0919,0.0857,0.04,0.0276,0.0199,0.0094,0.0903,0.0901,0.09,0,0.1036,0.1117,0.1214,0.127,0.1309,0.1432,0.151,0.1582,0.1688,0.1911,0.2022,0.2087,0.2148,0.1934,0.1529,0.1224,0.0965,0.0898,0.0738,0.0416,0.0246,0.0155,0.0066,0.0683,0.068,0.0678,0.0676,0,0.1191,0.1217,0.1288,0.1401,0.1495,0.1623,0.175,0.1874,0.1997,0.2176,0.2422,0.2509,0.2296,0.198,0.1503,0.1231,0.0674,0.0836,0.0554,0.0133,-0.0015,-0.0155,0.0555,0.0654,0.0656,0.0658,0.0659,0.066,0.1267,0.1329,0.1386,0.1509,0.162,0.1789,0.1919,0.2076,0.2306,0.2591,0.2689,0.2864,0.2335,0.1696,0.1299,0.0441,0.0533,0.0165,0.0068,0.0026,-0.0156,0.0496,0.049,0.0491,0.0492,0.0493,0.0494,0,0.13,0.136,0.1475,0.1611,0.1749,0.1809,0.2047,0.2194,0.2477,0.277,0.2993,0.2799,0.2134,0.1431,0.0299,-0.0252,-0.0436,-0.0533,-0.0695,-0.0726,-0.0106,-0.0208,-0.0429,-0.0428,-0.0428,-0.0428,-0.0428,-0.0427,0.1307,0.1384,0.1453,0.1677,0.1794,0.2002,0.215,0.2402,0.2641,0.295,0.3048,0.31,0.2453,0.0593,-0.0713,-0.0991,-0.1299,-0.1377,-0.1472,-0.1121,-0.1065,-0.1011,-0.1142,-0.1555,-0.1556,-0.2084,-0.209,-0.2094]}],[{"header":{"parameterUnit":"m.s-1","parameterCategory":2,"la1":30.2991,"la2":30.254,"lo1":-89.0895,"lo2":-89.0444,"dy":0.0017,"dx":0.0017,"nx":28,"ny":28,"refTime":"2024-08-02T21:00:00:Z","depth":"2","parameterNumber":2,"parameterNumberName":"U-component_of_CURRENTS"},"data":[0,0,0,0,0,0,0,0,0,0,0,0,0,0,0,0,0,0,0,0,0,0,0,0,0,0,0,0,0,0,0,0,0,0,0,0,0,0,0,0,0,0,0,0,0,0,0,0,0,0,0,0,0,0,0,0,0,0,0.2585,0.2585,0,0.2679,0.268,0.2682,0.2762,0.2762,0.2763,0.2763,0.281,0.281,0.2811,0,0,0,0,0,0,0,0,0,0,0,0,0,0.2514,0.2515,0.2585,0.2586,0.2586,0.2679,0.268,0.2682,0.2762,0.2762,0.2763,0.2764,0.2809,0.281,0.2811,0,0,0,0,0,0,0,0,0,0,0,0,0,0.2573,0.2515,0.2585,0.2635,0.264,0.2678,0.268,0.2682,0.2762,0.2762,0.2763,0.2764,0.2809,0.281,0.2811,0.2801,0,0,0.2814,0.2815,0,0,0,0,0,0,0,0,0.2569,0.2576,0.2627,0.2631,0.2637,0.2706,0.2672,0.2718,0.2761,0.2719,0.2763,0.2764,0.2768,0.2772,0.2794,0.2803,0.2805,0.2814,0.2815,0.2816,0.2816,0,0,0,0,0,0,0,0.2565,0.2573,0.2626,0.2627,0.2634,0.2666,0.2675,0.2682,0.2739,0.2723,0.2728,0.2733,0.2771,0.2793,0.2795,0.2805,0.2814,0.2815,0.2816,0.2816,0.2896,0.2897,0,0,0,0,0,0,0.2544,0.2568,0.2623,0.2628,0.2601,0.2666,0.2677,0.2686,0.274,0.2749,0.2732,0.2736,0.279,0.2794,0.2797,0.2891,0.2816,0.2817,0.2817,0.2894,0.2896,0.2898,0,0,0,0,0,0,0.2542,0.2548,0.2619,0.2597,0.2608,0.2666,0.2676,0.2687,0.2761,0.2747,0.2756,0.2799,0.2791,0.2795,0.2822,0.2889,0.2817,0.2818,0.2893,0.2895,0.2897,0.3011,0,0,0,0,0,0,0.2539,0.2547,0.2576,0.2596,0.2608,0.2701,0.2675,0.2689,0.2757,0.2766,0.2806,0.2808,0.2792,0.2821,0.2823,0.2889,0.2819,0.2891,0.2894,0.2896,0.3005,0.3017,0.3027,0,0,0,0,0,0.2537,0.2579,0.2577,0.2585,0.2637,0.2704,0.2717,0.2761,0.276,0.2824,0.281,0.281,0.2841,0.2822,0.2825,0.2893,0.2889,0.2893,0.2896,0.3001,0.3015,0.3026,0,0,0,0,0,0,0.2556,0.2591,0.259,0.2637,0.2689,0.2718,0.2778,0.2791,0.2835,0.2834,0.2819,0.2821,0.2877,0.2858,0.2837,0.2921,0.287,0.2874,0.2949,0.2962,0.2972,0.3077,0.282,0,0,0,0,0,0.2569,0.2609,0.2646,0.2681,0.272,0.2754,0.2793,0.2813,0.2835,0.2861,0.2871,0.2872,0.2886,0.2902,0.291,0.2948,0.3006,0.2994,0.3005,0.3014,0.31,0.3184,0.3212,0.2909,0.2909,0.2909,0,0,0.2565,0.2601,0.2612,0.2689,0.273,0.2775,0.2785,0.2855,0.2885,0.2851,0.2908,0.2917,0.2904,0.2949,0.2974,0.2947,0.3133,0.3019,0.3027,0.311,0.3191,0.3221,0.3248,0.2911,0.2911,0.291,0,0,0.2588,0.2636,0.2685,0.2729,0.2803,0.2828,0.286,0.2915,0.296,0.2988,0.2979,0.3048,0.3029,0.3079,0.3083,0.3163,0.3187,0.3139,0.3283,0.3361,0.3389,0.3414,0.3543,0.3578,0.3142,0.3142,0.3142,0,0.2597,0.2658,0.2712,0.2766,0.2805,0.2855,0.2907,0.2949,0.2994,0.3065,0.3018,0.3115,0.311,0.3221,0.325,0.3202,0.325,0.3232,0.3381,0.3407,0.343,0.3557,0.3594,0.3148,0.3147,0.3147,0.3146,0,0.2632,0.2701,0.2745,0.2818,0.2864,0.2936,0.2976,0.3059,0.3093,0.3139,0.3277,0.328,0.3364,0.3357,0.3325,0.3501,0.3486,0.3386,0.336,0.3469,0.3593,0.3631,0.3156,0.3154,0.3152,0.3151,0,0,0.2647,0.2754,0.2781,0.2835,0.291,0.296,0.3036,0.3174,0.3277,0.3332,0.3471,0.3544,0.3609,0.3625,0.362,0.3703,0.3906,0.3631,0.3631,0.3785,0.4127,0.384,0.3853,0.3808,0.3814,0.382,0.4154,0,0.2696,0.2812,0.2836,0.2936,0.3017,0.3074,0.315,0.3255,0.3347,0.3486,0.3588,0.3683,0.368,0.3723,0.3831,0.386,0.4007,0.383,0.3981,0.3989,0.3738,0.3887,0.3583,0.3829,0.419,0.4196,0.4201,0,0.277,0.2841,0.2941,0.3067,0.3108,0.3145,0.3333,0.3398,0.3593,0.366,0.3825,0.3874,0.4068,0.3981,0.4242,0.4115,0.4192,0.4219,0.4228,0.3965,0.3771,0.3772,0.3883,0.4264,0.4258,0.4254,0.425,0,0.2819,0.2949,0.304,0.3065,0.3172,0.3247,0.3323,0.3492,0.3569,0.3782,0.3854,0.4084,0.4156,0.431,0.4341,0.433,0.4546,0.4517,0.4385,0.4367,0.415,0.4097,0.4769,0.4769,0.4768,0.4767,0.4766,0,0.2904,0.2982,0.3079,0.3112,0.3221,0.3295,0.3427,0.354,0.3694,0.3799,0.3954,0.4055,0.4231,0.4327,0.4419,0.4471,0.4621,0.4498,0.4444,0.4172,0.412,0.4505,0.447,0.478,0.4777,0.4775,0.4772,0,0.2913,0.3003,0.3079,0.3194,0.3233,0.3296,0.3398,0.3496,0.3664,0.3792,0.3847,0.4064,0.4233,0.4337,0.4541,0.4515,0.4599,0.4575,0.4248,0.4146,0.4414,0.4382,0.4641,0.4633,0.4627,0.4622,0.4618,0,0.2912,0.2961,0.3061,0.3081,0.3116,0.3215,0.3274,0.3444,0.3516,0.3778,0.3821,0.4038,0.4141,0.4295,0.4299,0.4418,0.451,0.4141,0.408,0.4487,0.4409,0.4385,0.4361,0.3897,0.3887,0.3879,0.3873,0,0.283,0.2871,0.2901,0.2958,0.3011,0.3072,0.3178,0.3232,0.3442,0.3558,0.3759,0.3877,0.4051,0.3983,0.3975,0.4004,0.409,0.398,0.4517,0.3883,0.3784,0.3705,0.3709,0.3801,0.3808,0.3814,0.3818,0.382,0.2709,0.2701,0.2744,0.2792,0.2851,0.2918,0.2939,0.3061,0.316,0.328,0.3505,0.3575,0.3656,0.356,0.3476,0.3448,0.3775,0.3654,0.3682,0.3718,0.3478,0.3363,0.3266,0.327,0.3273,0.3276,0.3279,0,0.2527,0.2554,0.2575,0.2627,0.2632,0.2749,0.2844,0.2836,0.2903,0.3015,0.3115,0.292,0.2882,0.3015,0.2894,0.2882,0.2913,0.2774,0.2815,0.2887,0.295,0.2673,0.2248,0.2245,0.2241,0.2238,0,0,0.2421,0.238,0.242,0.2394,0.245,0.244,0.2484,0.2492,0.2549,0.247,0.2479,0.2656,0.289,0.2501,0.2463,0.2343,0.2593,0.2261,0.3093,0.321,0.3269,0.3465,0.3116,0,0,0,0,0]},{"header":{"parameterUnit":"m.s-1","parameterCategory":2,"la1":30.2991,"la2":30.254,"lo1":-89.0895,"lo2":-89.0444,"dy":0.0017,"dx":0.0017,"nx":28,"ny":28,"refTime":"2024-08-02T21:00:00:Z","depth":"2","parameterNumber":3,"parameterNumberName":"V-component_of_CURRENTS"},"data":[0,0,0,0,0,0,0,0,0,0,0,0,0,0,0,0,0,0,0,0,0,0,0,0,0,0,0,0,0,0,0,0,0,0,0,0,0,0,0,0,0,0,0,0,0,0,0,0,0,0,0,0,0,0,0,0,0,0,-0.0062,-0.0062,0,-0.0176,-0.0178,-0.018,-0.0292,-0.0292,-0.0293,-0.0294,-0.0427,-0.0429,-0.0432,0,0,0,0,0,0,0,0,0,0,0,0,0,-0.0064,-0.0063,-0.0062,-0.0062,-0.0063,-0.0176,-0.0178,-0.0181,-0.0291,-0.0292,-0.0293,-0.0294,-0.0426,-0.0429,-0.0432,0,0,0,0,0,0,0,0,0,0,0,0,0,-0.0115,-0.0062,-0.0061,-0.0127,-0.0133,-0.0176,-0.0178,-0.0181,-0.0291,-0.0292,-0.0294,-0.0295,-0.0425,-0.0429,-0.0433,-0.0436,0,0,-0.0446,-0.0448,0,0,0,0,0,0,0,0,-0.0112,-0.0116,-0.0116,-0.0122,-0.0129,-0.0215,-0.0228,-0.0265,-0.0291,-0.0239,-0.0294,-0.0295,-0.0352,-0.0362,-0.0391,-0.0442,-0.0448,-0.0446,-0.0449,-0.0451,-0.0452,0,0,0,0,0,0,0,-0.0108,-0.0112,-0.0114,-0.0117,-0.0125,-0.0193,-0.0201,-0.0236,-0.0293,-0.0244,-0.025,-0.0251,-0.0357,-0.0387,-0.0395,-0.045,-0.0446,-0.045,-0.0452,-0.0454,-0.0523,-0.0523,0,0,0,0,0,0,-0.0071,-0.0108,-0.0111,-0.0117,-0.0115,-0.019,-0.02,-0.0192,-0.0293,-0.0307,-0.025,-0.0256,-0.0379,-0.039,-0.04,-0.0432,-0.0451,-0.0454,-0.0457,-0.0524,-0.0523,-0.0523,0,0,0,0,0,0,-0.0071,-0.007,-0.0106,-0.0111,-0.0119,-0.0187,-0.0179,-0.0193,-0.0254,-0.0296,-0.0313,-0.0297,-0.038,-0.0394,-0.0428,-0.0437,-0.0456,-0.046,-0.0525,-0.0524,-0.0523,-0.0481,0,0,0,0,0,0,-0.007,-0.0069,-0.0074,-0.0107,-0.0117,-0.014,-0.0177,-0.0195,-0.0247,-0.0257,-0.0341,-0.0354,-0.0382,-0.0422,-0.0432,-0.0443,-0.0463,-0.0526,-0.0524,-0.0523,-0.0483,-0.0478,-0.0474,0,0,0,0,0,-0.007,-0.0068,-0.0073,-0.0075,-0.0113,-0.0139,-0.0152,-0.0211,-0.0248,-0.0273,-0.0313,-0.0353,-0.0421,-0.0424,-0.0437,-0.0449,-0.0526,-0.0525,-0.0523,-0.0485,-0.0479,-0.0474,0,0,0,0,0,0,-0.0072,-0.0079,-0.0086,-0.0086,-0.011,-0.0155,-0.0185,-0.0223,-0.0279,-0.0288,-0.0345,-0.0359,-0.0391,-0.042,-0.0422,-0.0462,-0.048,-0.0481,-0.0447,-0.0442,-0.0438,-0.0452,-0.0467,0,0,0,0,0,-0.0067,-0.0063,-0.0083,-0.0079,-0.0095,-0.0145,-0.0173,-0.0199,-0.0238,-0.0269,-0.0315,-0.0357,-0.039,-0.0416,-0.0444,-0.047,-0.0478,-0.0484,-0.048,-0.0476,-0.0494,-0.0518,-0.0518,-0.0517,-0.0517,-0.0518,0,0,-0.0057,-0.0064,-0.0059,-0.0079,-0.0108,-0.0109,-0.0168,-0.0195,-0.02,-0.0269,-0.0301,-0.0346,-0.0392,-0.0414,-0.0432,-0.0444,-0.0464,-0.0474,-0.0471,-0.0492,-0.0517,-0.0517,-0.0517,-0.0516,-0.0517,-0.0517,0,0,-0.003,-0.005,-0.0041,-0.0053,-0.0079,-0.0102,-0.0112,-0.0156,-0.0193,-0.0212,-0.0262,-0.0316,-0.0357,-0.0401,-0.0427,-0.0419,-0.0438,-0.0422,-0.0422,-0.0444,-0.0445,-0.0446,-0.0388,-0.0385,-0.0424,-0.0424,-0.0424,0,-0.003,-0.0013,-0.0045,-0.0037,-0.0042,-0.0095,-0.0085,-0.0117,-0.0162,-0.0193,-0.0208,-0.0302,-0.0353,-0.0402,-0.0406,-0.0415,-0.04,-0.0439,-0.044,-0.0442,-0.0444,-0.0385,-0.0382,-0.0422,-0.0422,-0.0422,-0.0422,0,0.0017,0.0018,0.0018,0.0022,0.0015,0.0009,-0.0013,-0.0042,-0.0086,-0.0123,-0.0185,-0.0249,-0.0309,-0.0336,-0.0378,-0.0422,-0.0391,-0.0428,-0.0455,-0.0441,-0.0379,-0.0376,-0.0419,-0.0419,-0.042,-0.0421,0,0,0.0013,0.0044,0.0035,0.0049,0.004,0.004,0.0038,-0.0002,-0.0013,-0.0078,-0.0101,-0.0207,-0.0263,-0.0298,-0.0357,-0.0407,-0.0399,-0.0429,-0.0431,-0.0373,-0.0382,-0.0489,-0.0495,-0.0435,-0.0436,-0.0437,-0.0308,0,0.0034,0.0073,0.0083,0.0113,0.012,0.0097,0.0101,0.0072,0.0036,0.0011,-0.0098,-0.0128,-0.0236,-0.0253,-0.0328,-0.039,-0.0402,-0.0427,-0.0404,-0.0402,-0.0504,-0.0502,-0.0456,-0.0352,-0.0305,-0.0305,-0.0305,0,0.0041,0.007,0.0115,0.0146,0.0145,0.017,0.0159,0.0164,0.0115,0.0092,0.0022,-0.0033,-0.0129,-0.0195,-0.0308,-0.0315,-0.0346,-0.0391,-0.0387,-0.0517,-0.051,-0.0373,-0.0349,-0.0301,-0.0301,-0.0301,-0.0302,0,0.0024,0.0067,0.0105,0.0122,0.0168,0.0177,0.0188,0.0168,0.0188,0.0157,0.0184,0.0054,0.0038,-0.0079,-0.0248,-0.0238,-0.0357,-0.0331,-0.0436,-0.0437,-0.0415,-0.0418,-0.0376,-0.0376,-0.0376,-0.0376,-0.0377,0,0.0012,0.0034,0.0105,0.0132,0.0182,0.0199,0.0246,0.024,0.0266,0.0321,0.0229,0.0269,0.006,-0.0047,-0.0189,-0.0351,-0.0305,-0.0442,-0.0441,-0.0393,-0.0395,-0.0387,-0.0391,-0.0372,-0.0373,-0.0374,-0.0374,0,-0.0015,0.0022,0.0082,0.0153,0.0183,0.0219,0.032,0.0362,0.0378,0.0467,0.0478,0.044,0.0342,0.0098,-0.0065,-0.0246,-0.0405,-0.0463,-0.0379,-0.0377,-0.0436,-0.0438,-0.0461,-0.0465,-0.0467,-0.047,-0.0472,0,-0.0018,0.0012,0.0118,0.0174,0.0216,0.029,0.0356,0.0407,0.0491,0.0587,0.0653,0.0598,0.0587,0.0259,-0.0073,-0.0332,-0.0388,-0.0485,-0.0497,-0.0463,-0.0458,-0.0456,-0.0454,-0.0375,-0.0376,-0.0377,-0.0377,0,-0.0002,0.0034,0.01,0.0221,0.0308,0.0427,0.0537,0.0636,0.0727,0.084,0.0995,0.1001,0.0704,0.0429,-0.0049,-0.023,-0.0463,-0.0509,-0.0498,-0.0421,-0.039,-0.0384,-0.0382,-0.0385,-0.0384,-0.0384,-0.0383,-0.0383,0.0019,0.0076,0.0175,0.0293,0.04,0.0578,0.072,0.088,0.1079,0.1265,0.1223,0.125,0.0852,0.0322,-0.0067,-0.0461,-0.0413,-0.054,-0.0532,-0.0525,-0.06,-0.0584,-0.0619,-0.062,-0.062,-0.0621,-0.0621,0,0.007,0.0146,0.0251,0.0421,0.0572,0.0616,0.0862,0.1059,0.1362,0.1436,0.1542,0.1202,0.0853,0.043,-0.0138,-0.0516,-0.0499,-0.0623,-0.051,-0.0501,-0.0494,-0.0564,-0.0575,-0.0576,-0.0576,-0.0577,0,0,0.0103,0.0226,0.03,0.0562,0.0686,0.0945,0.1118,0.141,0.1563,0.1695,0.1668,0.1505,0.0991,0.0575,0.0069,-0.0231,-0.0269,-0.029,-0.0292,-0.0091,-0.0078,-0.0421,-0.0519,0,0,0,0,0]}],[{"header":{"parameterUnit":"m.s-1","parameterCategory":2,"la1":30.2991,"la2":30.254,"lo1":-89.0895,"lo2":-89.0444,"dy":0.0017,"dx":0.0017,"nx":28,"ny":28,"refTime":"2024-08-02T21:00:00:Z","depth":"4","parameterNumber":2,"parameterNumberName":"U-component_of_CURRENTS"},"data":[0,0,0,0,0,0,0,0,0,0,0,0,0,0,0,0,0,0,0,0,0,0,0,0,0,0,0,0,0,0,0,0,0,0,0,0,0,0,0,0,0,0,0,0,0,0,0,0,0,0,0,0,0,0,0,0,0,0,0.1242,0.1242,0,0.1302,0.1303,0.1303,0.1367,0.1368,0.1368,0.1369,0.1492,0.1494,0.1497,0,0,0,0,0,0,0,0,0,0,0,0,0,0.1161,0.1162,0.1242,0.1243,0.1243,0.1302,0.1303,0.1304,0.1367,0.1368,0.1369,0.137,0.1491,0.1494,0.1497,0,0,0,0,0,0,0,0,0,0,0,0,0,0.1206,0.1163,0.1242,0.1282,0.1286,0.1302,0.1303,0.1304,0.1366,0.1368,0.1369,0.137,0.149,0.1494,0.1497,0.1493,0,0,0.1508,0.151,0,0,0,0,0,0,0,0,0.1203,0.1209,0.1275,0.1279,0.1284,0.1328,0.1319,0.137,0.1366,0.1336,0.1369,0.1371,0.1442,0.145,0.1457,0.1499,0.1504,0.1509,0.1511,0.1513,0.1514,0,0,0,0,0,0,0,0.12,0.1207,0.1266,0.1276,0.1281,0.129,0.1298,0.1329,0.1382,0.1339,0.1343,0.135,0.1445,0.1453,0.1461,0.1506,0.1509,0.1512,0.1514,0.1516,0.1681,0.1683,0,0,0,0,0,0,0.1193,0.1204,0.1264,0.1267,0.1246,0.129,0.1299,0.1313,0.138,0.1391,0.1348,0.1352,0.1446,0.1456,0.1465,0.1579,0.1513,0.1516,0.1518,0.1679,0.1682,0.1684,0,0,0,0,0,0,0.1191,0.1198,0.1261,0.1236,0.1245,0.129,0.1305,0.1313,0.1358,0.1387,0.14,0.1389,0.1448,0.146,0.1538,0.158,0.1518,0.1521,0.1677,0.168,0.1683,0.1733,0,0,0,0,0,0,0.1188,0.1197,0.1219,0.1236,0.1246,0.1294,0.1304,0.1313,0.1357,0.1364,0.1425,0.1436,0.145,0.1533,0.1542,0.1584,0.1524,0.1674,0.1678,0.1682,0.1728,0.1737,0.1745,0,0,0,0,0,0.1185,0.1203,0.122,0.1228,0.1271,0.1295,0.1302,0.1337,0.1358,0.1382,0.1436,0.1436,0.1565,0.1538,0.1548,0.1591,0.1672,0.1677,0.1682,0.1724,0.1735,0.1745,0,0,0,0,0,0,0.1185,0.1212,0.1231,0.126,0.1288,0.1306,0.1332,0.1355,0.1413,0.1435,0.1464,0.1479,0.1561,0.1572,0.154,0.1653,0.1618,0.1626,0.1647,0.1658,0.1666,0.1675,0.1527,0,0,0,0,0,0.1193,0.1212,0.1241,0.1266,0.1283,0.1314,0.1335,0.1363,0.1405,0.1433,0.1476,0.1529,0.1581,0.1618,0.1658,0.1719,0.1727,0.1755,0.1763,0.177,0.1786,0.183,0.1843,0.1701,0.1701,0.17,0,0,0.1196,0.1216,0.1227,0.1267,0.1292,0.1326,0.1332,0.1374,0.1422,0.1437,0.1526,0.1561,0.1605,0.1677,0.1715,0.1698,0.1816,0.1777,0.1782,0.1794,0.1836,0.185,0.1862,0.1704,0.1703,0.1703,0,0,0.1203,0.1236,0.1256,0.1282,0.1328,0.1353,0.1373,0.1419,0.1465,0.1548,0.1571,0.1634,0.1718,0.1749,0.1777,0.1856,0.1857,0.1875,0.1929,0.1971,0.1983,0.1993,0.2018,0.2031,0.1881,0.1881,0.1881,0,0.1208,0.1242,0.1266,0.1295,0.1328,0.137,0.141,0.1457,0.1528,0.1571,0.1594,0.1725,0.1753,0.1836,0.1869,0.1875,0.1898,0.1883,0.1981,0.1991,0.2001,0.2024,0.2037,0.1884,0.1884,0.1884,0.1883,0,0.1224,0.1266,0.1281,0.1336,0.1377,0.1415,0.148,0.1542,0.1609,0.1651,0.1764,0.1816,0.1896,0.191,0.1923,0.2008,0.2001,0.1981,0.1949,0.2018,0.2039,0.2051,0.1889,0.1888,0.1887,0.1886,0,0,0.1189,0.1275,0.1283,0.1329,0.1406,0.1441,0.1532,0.1616,0.1686,0.1773,0.186,0.1955,0.1988,0.2023,0.2043,0.208,0.216,0.2073,0.2074,0.2088,0.2258,0.2135,0.2136,0.2165,0.2167,0.2169,0.2242,0,0.1197,0.1253,0.1308,0.139,0.1428,0.151,0.1586,0.1672,0.1764,0.1855,0.1926,0.2018,0.2031,0.2085,0.2131,0.215,0.2198,0.2142,0.2199,0.22,0.2074,0.2148,0.2178,0.2251,0.2254,0.2256,0.2257,0,0.1189,0.1235,0.1303,0.1424,0.1453,0.1528,0.1668,0.1745,0.1867,0.194,0.2047,0.2098,0.219,0.2183,0.2285,0.2256,0.2279,0.2284,0.2286,0.2164,0.21,0.2171,0.228,0.2278,0.2276,0.2275,0.2273,0,0.1125,0.1237,0.1297,0.1332,0.1465,0.1551,0.1646,0.1777,0.1847,0.2005,0.207,0.2186,0.2257,0.2315,0.236,0.2337,0.2444,0.2401,0.2314,0.2305,0.2369,0.2357,0.248,0.248,0.248,0.248,0.248,0,0.1082,0.1135,0.1289,0.1317,0.1412,0.1543,0.1664,0.1767,0.1914,0.1985,0.212,0.2194,0.2299,0.2369,0.2394,0.24,0.2485,0.2342,0.2324,0.2388,0.2378,0.2377,0.2364,0.2483,0.2482,0.2481,0.2481,0,0.0977,0.1064,0.1154,0.1328,0.1375,0.146,0.1646,0.1725,0.1894,0.1996,0.205,0.2214,0.232,0.2402,0.2484,0.2428,0.2446,0.243,0.2507,0.2489,0.2266,0.2255,0.2324,0.232,0.2317,0.2314,0.2312,0,0.0922,0.0949,0.1126,0.1176,0.1266,0.1403,0.147,0.1671,0.1756,0.1987,0.2013,0.2184,0.2277,0.2307,0.24,0.2449,0.2427,0.2408,0.2326,0.2279,0.2255,0.2249,0.2242,0.2308,0.2307,0.2306,0.2305,0,0.0811,0.089,0.0952,0.1051,0.1152,0.1246,0.1392,0.1439,0.1663,0.182,0.1949,0.2036,0.215,0.2229,0.2297,0.232,0.2396,0.2375,0.238,0.2303,0.2261,0.2238,0.2235,0.2295,0.2296,0.2297,0.2298,0,0.0733,0.0752,0.0836,0.0921,0.1017,0.1091,0.1189,0.1325,0.143,0.1715,0.1747,0.1956,0.212,0.2165,0.2221,0.2247,0.2207,0.2115,0.2132,0.2145,0.2055,0.1973,0.192,0,0,0,0,0,0.065,0.0655,0.0703,0.0801,0.0892,0.0957,0.1119,0.1234,0.1448,0.1493,0.1633,0.1748,0.1878,0.1982,0.1975,0.2124,0.2193,0.2102,0.2087,0.2237,0.2249,0.2161,0,0,0,0,0,0,0.0601,0.0623,0.0645,0.0662,0.0717,0.0807,0.0915,0.1066,0.1124,0.1357,0.1444,0.162,0.1772,0.1862,0.1932,0.1963,0.1914,0.2237,0.2232,0.223,0.2241,0.2251,0.2164,0,0,0,0,0]},{"header":{"parameterUnit":"m.s-1","parameterCategory":2,"la1":30.2991,"la2":30.254,"lo1":-89.0895,"lo2":-89.0444,"dy":0.0017,"dx":0.0017,"nx":28,"ny":28,"refTime":"2024-08-02T21:00:00:Z","depth":"4","parameterNumber":3,"parameterNumberName":"V-component_of_CURRENTS"},"data":[0,0,0,0,0,0,0,0,0,0,0,0,0,0,0,0,0,0,0,0,0,0,0,0,0,0,0,0,0,0,0,0,0,0,0,0,0,0,0,0,0,0,0,0,0,0,0,0,0,0,0,0,0,0,0,0,0,0,0.0151,0.0151,0,0.0102,0.0102,0.0101,0.0071,0.0071,0.0071,0.0071,-0.0033,-0.0035,-0.0038,0,0,0,0,0,0,0,0,0,0,0,0,0,0.016,0.016,0.0151,0.0151,0.015,0.0102,0.0102,0.0101,0.0071,0.0071,0.0071,0.0071,-0.0032,-0.0035,-0.0038,0,0,0,0,0,0,0,0,0,0,0,0,0,0.0138,0.016,0.0152,0.013,0.0128,0.0103,0.0102,0.0101,0.0071,0.0071,0.0071,0.0071,-0.0031,-0.0035,-0.0039,-0.006,0,0,-0.0051,-0.0052,0,0,0,0,0,0,0,0,0.0139,0.0137,0.0134,0.0132,0.0129,0.0093,0.0067,0.0044,0.0071,0.0092,0.0071,0.0071,0.0005,-0.0002,-0.0011,-0.0065,-0.0069,-0.0051,-0.0054,-0.0055,-0.0056,0,0,0,0,0,0,0,0.0141,0.0139,0.0132,0.0133,0.013,0.0102,0.01,0.0062,0.0049,0.009,0.0088,0.0084,0.0003,-0.0007,-0.0014,-0.0071,-0.0051,-0.0055,-0.0057,-0.0059,-0.0163,-0.0164,0,0,0,0,0,0,0.0151,0.0141,0.0133,0.013,0.0134,0.0103,0.0099,0.0104,0.005,0.0042,0.0084,0.0082,-0.0,-0.0009,-0.0018,-0.0051,-0.0055,-0.0059,-0.0061,-0.0163,-0.0163,-0.0164,0,0,0,0,0,0,0.0152,0.0151,0.0135,0.0134,0.013,0.0103,0.0109,0.0103,0.0095,0.0046,0.0037,0.0081,-0.0001,-0.0012,-0.0054,-0.0055,-0.0061,-0.0064,-0.0162,-0.0163,-0.0163,-0.0114,0,0,0,0,0,0,0.0152,0.0152,0.016,0.0135,0.0131,0.0126,0.0109,0.0103,0.0093,0.009,0.004,0.003,-0.0002,-0.0048,-0.0058,-0.006,-0.0067,-0.0162,-0.0163,-0.0163,-0.0115,-0.0113,-0.0111,0,0,0,0,0,0.0153,0.0167,0.0161,0.016,0.0143,0.0127,0.0122,0.0101,0.0093,0.0092,0.0052,0.0032,-0.006,-0.0052,-0.0064,-0.0067,-0.0161,-0.0162,-0.0163,-0.0116,-0.0114,-0.0111,0,0,0,0,0,0,0.0168,0.0164,0.0158,0.0168,0.0151,0.0122,0.0121,0.0105,0.0075,0.0072,0.0024,0.0011,-0.0025,-0.0055,-0.0045,-0.01,-0.0113,-0.0116,-0.0073,-0.0071,-0.0069,-0.0064,-0.0071,0,0,0,0,0,0.0178,0.0191,0.0173,0.0179,0.0175,0.0149,0.014,0.0126,0.0096,0.0084,0.0047,0.0004,-0.0038,-0.0061,-0.0099,-0.0131,-0.0181,-0.0141,-0.0139,-0.0136,-0.0142,-0.0226,-0.0232,-0.0166,-0.0166,-0.0166,0,0,0.0183,0.0183,0.0188,0.0183,0.017,0.0167,0.0143,0.0136,0.0128,0.0075,0.0052,0.001,-0.0046,-0.008,-0.0099,-0.0105,-0.0179,-0.0138,-0.0135,-0.0142,-0.0227,-0.0234,-0.024,-0.0167,-0.0167,-0.0167,0,0,0.0199,0.0203,0.0217,0.021,0.0199,0.0183,0.0184,0.0158,0.0144,0.0115,0.0073,0.0027,-0.0027,-0.0071,-0.01,-0.0112,-0.0165,-0.0119,-0.0106,-0.0187,-0.0193,-0.0199,-0.026,-0.0273,-0.0118,-0.0118,-0.0118,0,0.0203,0.0222,0.0215,0.0224,0.0222,0.0194,0.0201,0.0181,0.0142,0.0122,0.0115,0.0015,-0.0025,-0.0086,-0.0087,-0.0107,-0.0158,-0.0107,-0.0184,-0.0191,-0.0199,-0.026,-0.0274,-0.0116,-0.0116,-0.0116,-0.0116,0,0.0225,0.0241,0.0248,0.0255,0.025,0.0251,0.0228,0.0215,0.0194,0.0162,0.0105,0.0043,-0.002,-0.0036,-0.0065,-0.0132,-0.0152,-0.0171,-0.0188,-0.0202,-0.0266,-0.0281,-0.0112,-0.0113,-0.0114,-0.0114,0,0,0.0231,0.026,0.0261,0.0274,0.0269,0.0265,0.0257,0.0231,0.0217,0.0167,0.013,0.0057,0.0017,-0.002,-0.0067,-0.0134,-0.0218,-0.0167,-0.0173,-0.0223,-0.0392,-0.0331,-0.0343,-0.0254,-0.0256,-0.0258,-0.0413,0,0.0247,0.028,0.0287,0.0306,0.0319,0.0301,0.0296,0.0267,0.0234,0.019,0.011,0.006,0.0025,-0.0004,-0.008,-0.0187,-0.0259,-0.0174,-0.0376,-0.0382,-0.0322,-0.0358,-0.0267,-0.0424,-0.0428,-0.0431,-0.0432,0,0.0263,0.0286,0.0318,0.034,0.0343,0.035,0.0334,0.0325,0.0259,0.0232,0.0159,0.0094,-0.0011,-0.0033,-0.0233,-0.0179,-0.0281,-0.0363,-0.0372,-0.0344,-0.035,-0.0412,-0.0461,-0.0459,-0.0457,-0.0455,-0.0453,0,0.0267,0.0303,0.0334,0.0341,0.0359,0.0367,0.037,0.0332,0.033,0.0253,0.0235,0.0095,0.0032,-0.0125,-0.0272,-0.027,-0.0487,-0.0509,-0.0554,-0.0551,-0.0581,-0.0573,-0.0658,-0.0658,-0.0658,-0.0657,-0.0657,0,0.0281,0.03,0.0344,0.0357,0.0396,0.0391,0.0414,0.0397,0.0366,0.0363,0.0257,0.0218,0.0005,-0.0133,-0.0282,-0.0451,-0.05,-0.0562,-0.0593,-0.0554,-0.0542,-0.0591,-0.0581,-0.0663,-0.0662,-0.0661,-0.066,0,0.0285,0.0305,0.0345,0.0384,0.0404,0.0429,0.0474,0.0487,0.0452,0.0442,0.0421,0.0283,0.0109,-0.0087,-0.0343,-0.0442,-0.0621,-0.0666,-0.0595,-0.0617,-0.0636,-0.0622,-0.0761,-0.0761,-0.076,-0.0759,-0.0759,0,0.0297,0.0321,0.0383,0.042,0.0445,0.0493,0.0536,0.0534,0.0552,0.0491,0.0486,0.0324,0.0219,-0.0089,-0.0305,-0.0588,-0.0614,-0.0707,-0.0692,-0.0634,-0.065,-0.0637,-0.0624,-0.0758,-0.0758,-0.0758,-0.0758,0,0.0327,0.0346,0.0387,0.0468,0.0524,0.059,0.0644,0.0663,0.0655,0.0625,0.0548,0.0382,0.0192,-0.0064,-0.0267,-0.0471,-0.0653,-0.0702,-0.0705,-0.0693,-0.0632,-0.0645,-0.0633,-0.0755,-0.0756,-0.0756,-0.0756,0,0.0364,0.0395,0.0453,0.052,0.0598,0.0663,0.0685,0.071,0.0719,0.0656,0.0627,0.0418,0.0281,-0.0003,-0.0197,-0.0381,-0.0441,-0.05,-0.0515,-0.052,-0.0391,-0.0275,-0.0325,0,0,0,0,0,0.0399,0.0433,0.0505,0.0572,0.0649,0.069,0.0754,0.0764,0.0758,0.0727,0.0681,0.0514,0.0219,0.0073,-0.0102,-0.0205,-0.0483,-0.0417,-0.056,-0.0743,-0.0746,-0.0629,0,0,0,0,0,0,0.0421,0.0485,0.0509,0.0608,0.0661,0.0746,0.0788,0.0782,0.076,0.0723,0.0568,0.0482,0.019,0.0324,-0.0102,-0.0163,-0.0274,-0.0563,-0.0566,-0.0742,-0.0744,-0.0746,-0.0627,0,0,0,0,0]}]]